Rensselaer, IN

2:04 PM CDT on August 25, 2016 (GMT -0500)
Jasper County

Weather History for KRZL - March, 2014

Change the Weather History Date:

Friday, March 21, 2014

  Actual Average (KVPZ) Record (KVPZ)
Temperature  
Mean Temperature 46 °F 40 °F  
Max Temperature 60 °F 49 °F 86 °F (2012)
Min Temperature 32 °F 30 °F 3 °F (1906)
Degree Days  
Heating Degree Days 19 25  
Month to date heating degree days 611  
Since 1 July heating degree days 5343  
Cooling Degree Days 0 0  
Month to date cooling degree days 0  
Year to date cooling degree days 0  
Moisture  
Dew Point 35 °F    
Average Humidity 70    
Maximum Humidity 100    
Minimum Humidity 39    
Precipitation  
Precipitation 0.00 in 0.08 in 1.16 in (1921)
Month to date precipitation 1.56  
Year to date precipitation 4.73  
Sea Level Pressure  
Sea Level Pressure 29.88 in    
Wind  
Wind Speed 9 mph (SE)    
Max Wind Speed 18 mph    
Max Gust Speed 26 mph    
Visibility 9 miles    
Events      
T = Trace of Precipitation, MM = Missing Value Source: NWS Daily Summary

Daily Weather History Graph

Daily Weather History Graph

Search for Another Location

Airport or City:

Trip Planner

Search our weather history database for the weather conditions in past years. The results will help you decide how hot, cold, wet, or windy it might be!

Date:

Astronomy

Mar. 21, 2014 Rise Set
Actual Time 6:50 AM CDT 7:01 PM CDT
Civil Twilight 6:23 AM CDT 7:29 PM CDT
Nautical Twilight 5:50 AM CDT 8:01 PM CDT
Astronomical Twilight 5:18 AM CDT 8:34 PM CDT
Moon No Moon Rise 9:39 AM CDT (3/21)
Length of Visible Light 13h 06m
Length of Day
12h 11m
Waning Gibbous, 75% of the Moon is Illuminated
Mar 21
Waning Gibbous
Mar 23
Last Quarter
Mar 30
New
Apr 7
First Quarter
Apr 15
Full

Hourly Weather History & Observations

Time (CDT) Temp. Windchill Dew Point Humidity Pressure Visibility Wind Dir Wind Speed Gust Speed Precip Events Conditions
12:15 AM 33.8 °F 25.3 °F 32.0 °F 93% 30.02 in 10.0 mi ENE 11.5 mph - N/A   Overcast
12:35 AM 35.6 °F 29.2 °F 32.0 °F 87% 30.01 in 10.0 mi NE 8.1 mph - N/A   Overcast
12:55 AM 35.6 °F 28.6 °F 32.0 °F 87% 30.01 in 10.0 mi East 9.2 mph - N/A   Light Drizzle
1:15 AM 35.6 °F 30.7 °F 32.0 °F 87% 30.03 in 10.0 mi East 5.8 mph - N/A   Overcast
1:35 AM 35.6 °F 28.0 °F 32.0 °F 87% 30.03 in 10.0 mi ENE 10.4 mph - N/A   Overcast
1:55 AM 33.8 °F 29.6 °F 32.0 °F 93% 30.03 in 10.0 mi ENE 4.6 mph - N/A   Overcast
2:15 AM 33.8 °F 27.0 °F 32.0 °F 93% 30.03 in 10.0 mi East 8.1 mph - N/A   Mostly Cloudy
2:35 AM 33.8 °F 27.0 °F 32.0 °F 93% 30.02 in 10.0 mi ENE 8.1 mph - N/A   Mostly Cloudy
2:55 AM 33.8 °F 27.0 °F 32.0 °F 93% 30.01 in 7.0 mi ENE 8.1 mph - N/A   Scattered Clouds
3:15 AM 33.8 °F 27.0 °F 32.0 °F 93% 30.00 in 7.0 mi ENE 8.1 mph - N/A   Mostly Cloudy
3:35 AM 33.8 °F 27.7 °F 32.0 °F 93% 30.00 in 7.0 mi ENE 6.9 mph - N/A   Scattered Clouds
3:55 AM 32.0 °F 25.6 °F 32.0 °F 100% 30.00 in 7.0 mi East 6.9 mph - N/A   Clear
4:15 AM 32.0 °F 25.6 °F 32.0 °F 100% 30.00 in 5.0 mi East 6.9 mph - N/A   Clear
4:35 AM 32.0 °F 26.4 °F 32.0 °F 100% 29.99 in 5.0 mi ENE 5.8 mph - N/A   Clear
4:55 AM 32.0 °F 25.6 °F 32.0 °F 100% 29.99 in 5.0 mi East 6.9 mph - N/A   Scattered Clouds
5:15 AM 32.0 °F 24.8 °F 32.0 °F 100% 29.98 in 5.0 mi East 8.1 mph - N/A   Scattered Clouds
5:35 AM 32.0 °F 24.8 °F 32.0 °F 100% 29.97 in 5.0 mi East 8.1 mph - N/A   Scattered Clouds
5:55 AM 32.0 °F 24.8 °F 32.0 °F 100% 29.96 in 5.0 mi East 8.1 mph - N/A   Scattered Clouds
6:15 AM 33.8 °F 26.4 °F 32.0 °F 93% 29.96 in 5.0 mi East 9.2 mph - N/A   Clear
6:35 AM 32.0 °F 25.6 °F 32.0 °F 100% 29.97 in 5.0 mi ENE 6.9 mph - N/A   Clear
6:55 AM 32.0 °F 25.6 °F 32.0 °F 100% 29.97 in 3.0 mi ENE 6.9 mph - N/A   Clear
7:15 AM 32.0 °F 24.8 °F 32.0 °F 100% 29.97 in 3.0 mi East 8.1 mph - N/A   Clear
7:35 AM 32.0 °F 24.2 °F 32.0 °F 100% 29.97 in 3.0 mi East 9.2 mph - N/A   Clear
7:55 AM 33.8 °F 25.8 °F 32.0 °F 93% 29.97 in 4.0 mi East 10.4 mph - N/A   Clear
8:15 AM 35.6 °F 28.0 °F 33.8 °F 93% 29.97 in 5.0 mi East 10.4 mph - N/A   Clear
8:35 AM 35.6 °F 29.2 °F 33.8 °F 93% 29.96 in 5.0 mi East 8.1 mph - N/A   Clear
8:55 AM 37.4 °F 30.3 °F 33.8 °F 87% 29.96 in 7.0 mi East 10.4 mph - N/A   Clear
9:15 AM 39.2 °F 33.0 °F 33.8 °F 81% 29.96 in 7.0 mi East 9.2 mph - N/A   Clear
9:35 AM 41.0 °F 34.7 °F 35.6 °F 81% 29.96 in 10.0 mi East 10.4 mph - N/A   Clear
9:55 AM 42.8 °F 36.6 °F 35.6 °F 76% 29.94 in 10.0 mi East 11.5 mph - N/A   Clear
10:15 AM 44.6 °F 38.4 °F 35.6 °F 71% 29.94 in 10.0 mi ESE 12.7 mph - N/A   Clear
10:35 AM 44.6 °F 39.7 °F 35.6 °F 71% 29.94 in 10.0 mi ESE 9.2 mph - N/A   Clear
10:55 AM 46.4 °F 41.9 °F 35.6 °F 66% 29.94 in 10.0 mi East 9.2 mph - N/A   Clear
11:15 AM 46.4 °F 41.9 °F 35.6 °F 66% 29.94 in 10.0 mi SE 9.2 mph - N/A   Clear
11:35 AM 48.2 °F - 35.6 °F 62% 29.92 in 10.0 mi East 9.2 mph - N/A   Clear
11:55 AM 50.0 °F - 37.4 °F 62% 29.91 in 10.0 mi East 8.1 mph - N/A   Clear
12:15 PM 50.0 °F - 37.4 °F 62% 29.89 in 10.0 mi East 10.4 mph - N/A   Clear
12:35 PM 51.8 °F - 37.4 °F 58% 29.88 in 10.0 mi ESE 9.2 mph - N/A   Clear
12:55 PM 53.6 °F - 39.2 °F 58% 29.88 in 10.0 mi SE 8.1 mph - N/A   Clear
1:15 PM 53.6 °F - 39.2 °F 58% 29.87 in 10.0 mi SE 11.5 mph - N/A   Clear
1:35 PM 55.4 °F - 39.2 °F 54% 29.86 in 10.0 mi SE 10.4 mph - N/A   Clear
1:55 PM 55.4 °F - 37.4 °F 51% 29.85 in 10.0 mi SE 10.4 mph - N/A   Clear
2:15 PM 57.2 °F - 37.4 °F 48% 29.84 in 10.0 mi SSE 8.1 mph - N/A   Clear
2:35 PM 59.0 °F - 35.6 °F 42% 29.82 in 10.0 mi South 13.8 mph 19.6 mph N/A   Clear
2:55 PM 60.8 °F - 35.6 °F 39% 29.81 in 10.0 mi SSE 13.8 mph 17.3 mph N/A   Clear
3:15 PM 60.8 °F - 35.6 °F 39% 29.81 in 10.0 mi South 10.4 mph - N/A   Clear
3:35 PM 60.8 °F - 35.6 °F 39% 29.80 in 10.0 mi SSW 15.0 mph - N/A   Clear
3:55 PM 60.8 °F - 35.6 °F 39% 29.79 in 10.0 mi SW 10.4 mph - N/A   Clear
4:15 PM 60.8 °F - 35.6 °F 39% 29.78 in 10.0 mi SSW 13.8 mph - N/A   Clear
4:35 PM 60.8 °F - 35.6 °F 39% 29.76 in 10.0 mi SSW 9.2 mph 12.7 mph N/A   Clear
4:55 PM 60.8 °F - 37.4 °F 42% 29.75 in 10.0 mi South 9.2 mph - N/A   Mostly Cloudy
5:15 PM 60.8 °F - 37.4 °F 42% 29.74 in 10.0 mi South 8.1 mph - N/A   Mostly Cloudy
5:35 PM 60.8 °F - 37.4 °F 42% 29.74 in 10.0 mi South 8.1 mph - N/A   Clear
5:55 PM 60.8 °F - 39.2 °F 45% 29.73 in 10.0 mi South 10.4 mph - N/A   Scattered Clouds
6:15 PM 60.8 °F - 37.4 °F 42% 29.71 in 10.0 mi South 8.1 mph - N/A   Scattered Clouds
6:35 PM 59.0 °F - 39.2 °F 48% 29.72 in 10.0 mi South 6.9 mph - N/A   Scattered Clouds
6:55 PM 57.2 °F - 39.2 °F 51% 29.71 in 10.0 mi SSW 5.8 mph - N/A   Scattered Clouds
7:15 PM 55.4 °F - 41.0 °F 58% 29.71 in 10.0 mi SSW 6.9 mph - N/A   Mostly Cloudy
7:35 PM 55.4 °F - 41.0 °F 58% 29.71 in 10.0 mi South 9.2 mph - N/A   Overcast
7:55 PM 55.4 °F - 39.2 °F 54% 29.70 in 10.0 mi SSW 8.1 mph - N/A   Overcast
8:15 PM 53.6 °F - 39.2 °F 58% 29.71 in 10.0 mi SW 9.2 mph - N/A   Overcast
8:35 PM 55.4 °F - 39.2 °F 54% 29.71 in 10.0 mi SW 9.2 mph - N/A   Overcast
8:55 PM 55.4 °F - 39.2 °F 54% 29.74 in 10.0 mi West 16.1 mph - N/A   Overcast
9:15 PM 53.6 °F - 37.4 °F 54% 29.74 in 10.0 mi West 13.8 mph 18.4 mph N/A   Overcast
9:35 PM 53.6 °F - 37.4 °F 54% 29.75 in 10.0 mi WNW 17.3 mph 21.9 mph N/A   Overcast
9:55 PM 51.8 °F - 37.4 °F 58% 29.76 in 10.0 mi West 16.1 mph 25.3 mph N/A   Overcast
10:15 PM 51.8 °F - 37.4 °F 58% 29.78 in 10.0 mi West 13.8 mph 26.5 mph N/A   Overcast
10:35 PM 50.0 °F - 35.6 °F 58% 29.79 in 10.0 mi West 18.4 mph 26.5 mph N/A   Overcast
10:55 PM 48.2 °F - 33.8 °F 58% 29.80 in 10.0 mi WNW 16.1 mph 23.0 mph N/A   Overcast
11:15 PM 48.2 °F - 32.0 °F 54% 29.81 in 10.0 mi West 11.5 mph 18.4 mph N/A   Overcast
11:35 PM 46.4 °F 41.1 °F 32.0 °F 57% 29.82 in 10.0 mi WNW 11.5 mph 20.7 mph N/A   Overcast
11:55 PM 44.6 °F 38.8 °F 32.0 °F 61% 29.83 in 10.0 mi West 11.5 mph - N/A   Mostly Cloudy